Swansboro, NC

5:27 PM EDT on August 27, 2016 (GMT -0400)
Bogue McAlf

Weather History for KNJM - December, 2013

Change the Weather History Date:

Sunday, December 29, 2013

  Actual Average (KNKT) Record (KNKT)
Temperature  
Mean Temperature 60 °F -  
Max Temperature 66 °F 53 °F 77 °F (2015)
Min Temperature 53 °F 33 °F 24 °F (2010)
Degree Days  
Heating Degree Days 5    
Growing Degree Days 10 (Base 50)    
Moisture  
Dew Point 58 °F    
Average Humidity 87    
Maximum Humidity 93    
Minimum Humidity 75    
Precipitation  
Precipitation 0.18 in - - ()
Sea Level Pressure  
Sea Level Pressure 29.87 in    
Wind  
Wind Speed 13 mph (SSW)    
Max Wind Speed 26 mph    
Max Gust Speed 36 mph    
Visibility 6 miles    
Events Rain    
Averages and records for this station are not official NWS values.
T = Trace of Precipitation, MM = Missing Value Source: NWS Daily Summary

Daily Weather History Graph

Daily Weather History Graph

Search for Another Location

Airport or City:

Trip Planner

Search our weather history database for the weather conditions in past years. The results will help you decide how hot, cold, wet, or windy it might be!

Date:

Astronomy

Dec. 29, 2013 Rise Set
Actual Time 7:14 AM EST 5:06 PM EST
Civil Twilight 6:46 AM EST 5:34 PM EST
Nautical Twilight 6:15 AM EST 6:05 PM EST
Astronomical Twilight 5:44 AM EST 6:36 PM EST
Moon 3:59 AM EST (12/29) 2:39 PM EST (12/29)
Length of Visible Light 10h 47m
Length of Day
9h 51m
Waning Crescent, 11% of the Moon is Illuminated
Dec 29
Waning Crescent
Jan 1
New
Jan 7
First Quarter
Jan 15
Full
Jan 24
Last Quarter

Hourly Weather History & Observations

Time (EST) Temp. Dew Point Humidity Pressure Visibility Wind Dir Wind Speed Gust Speed Precip Events Conditions
12:57 AM 54.0 °F 46.0 °F 75% 30.14 in 10.0 mi East 4.6 mph - N/A   Mostly Cloudy
1:57 AM 62.1 °F 54.0 °F 75% 30.12 in 10.0 mi SE 10.4 mph - N/A   Overcast
2:57 AM 62.1 °F 54.0 °F 75% 30.09 in 10.0 mi SSE 11.5 mph - N/A   Overcast
3:57 AM 63.0 °F 55.0 °F 75% 30.05 in 10.0 mi SE 11.5 mph - N/A   Overcast
4:57 AM 63.0 °F 55.0 °F 75% 30.01 in 10.0 mi SSE 13.8 mph - 0.00 in   Overcast
5:57 AM 64.0 °F 57.0 °F 78% 29.98 in 10.0 mi SSE 12.7 mph 24.2 mph N/A   Overcast
6:57 AM 64.9 °F 57.9 °F 78% 29.97 in 9.0 mi South 17.3 mph 23.0 mph N/A   Overcast
7:57 AM 64.9 °F 60.1 °F 84% 29.95 in 7.0 mi South 16.1 mph 28.8 mph N/A   Overcast
8:57 AM 64.9 °F 60.1 °F 84% 29.94 in 7.0 mi South 15.0 mph 24.2 mph 0.00 in   Overcast
9:57 AM 66.9 °F 60.1 °F 79% 29.91 in 8.0 mi South 18.4 mph 27.6 mph 0.00 in Rain Light Rain
10:57 AM 66.9 °F 60.1 °F 79% 29.88 in 7.0 mi South 21.9 mph 31.1 mph 0.00 in Rain Light Rain
11:47 AM 64.9 °F 60.1 °F 84% 29.83 in 2.5 mi South 20.7 mph - 0.04 in Rain Rain
11:57 AM 64.9 °F 60.1 °F 84% 29.83 in 1.5 mi South 24.2 mph 31.1 mph 0.10 in Rain Heavy Rain
12:14 PM 64.0 °F 61.0 °F 90% 29.79 in 2.0 mi South 26.5 mph 35.7 mph 0.06 in Rain Heavy Rain
12:40 PM 64.9 °F 63.0 °F 93% 29.79 in 3.0 mi South 19.6 mph 31.1 mph 0.08 in   Overcast
12:57 PM 64.9 °F 63.0 °F 93% 29.80 in 3.0 mi South 20.7 mph 32.2 mph 0.08 in   Overcast
1:26 PM 64.9 °F 63.0 °F 93% 29.78 in 3.0 mi SSW 15.0 mph 26.5 mph N/A   Overcast
1:29 PM 64.9 °F 63.0 °F 93% 29.77 in 3.0 mi SSW 18.4 mph 26.5 mph N/A   Overcast
1:37 PM 66.0 °F 63.0 °F 90% 29.77 in 3.0 mi SSW 19.6 mph 27.6 mph N/A   Mostly Cloudy
1:47 PM 66.0 °F 62.1 °F 87% 29.77 in 5.0 mi SW 19.6 mph 28.8 mph 0.00 in Rain Light Rain
2:39 PM 64.0 °F 61.0 °F 90% 29.75 in 5.0 mi SW 17.3 mph 31.1 mph 0.00 in   Mostly Cloudy
2:44 PM 63.0 °F 60.1 °F 90% 29.75 in 5.0 mi WSW 12.7 mph 31.1 mph 0.00 in   Mostly Cloudy
2:57 PM 62.1 °F 59.0 °F 90% 29.77 in 4.0 mi WSW 12.7 mph - 0.00 in   Mostly Cloudy
3:32 PM 63.0 °F 60.1 °F 90% 29.76 in 4.0 mi SW 17.3 mph 27.6 mph N/A   Overcast
3:57 PM 63.0 °F 60.1 °F 90% 29.78 in 4.0 mi SW 19.6 mph 26.5 mph N/A   Overcast
4:32 PM 63.0 °F 60.1 °F 90% 29.77 in 4.0 mi SW 16.1 mph 26.5 mph N/A   Overcast
4:57 PM 63.0 °F 60.1 °F 90% 29.78 in 4.0 mi SW 15.0 mph 26.5 mph N/A   Mostly Cloudy
5:22 PM 62.1 °F 59.0 °F 90% 29.78 in 5.0 mi WSW 12.7 mph - N/A   Overcast
5:57 PM 60.1 °F 57.9 °F 93% 29.80 in 4.0 mi WSW 12.7 mph 19.6 mph N/A   Overcast
6:26 PM 61.0 °F 59.0 °F 93% 29.79 in 4.0 mi WSW 10.4 mph 18.4 mph N/A   Overcast
6:37 PM 61.0 °F 57.9 °F 90% 29.80 in 4.0 mi WSW 8.1 mph - N/A   Overcast
6:57 PM 61.0 °F 59.0 °F 93% 29.83 in 5.0 mi WSW 6.9 mph - N/A   Overcast
7:16 PM 61.0 °F 59.0 °F 93% 29.82 in 5.0 mi WSW 4.6 mph - N/A   Overcast
7:57 PM 59.0 °F 57.0 °F 93% 29.87 in 4.0 mi WSW 3.5 mph - N/A   Clear
8:11 PM 57.9 °F 55.9 °F 93% 29.86 in 1.8 mi Calm Calm - N/A   Clear
8:19 PM 59.0 °F 55.9 °F 90% 29.87 in 3.0 mi NW 6.9 mph - N/A   Clear
8:57 PM 57.9 °F 54.0 °F 87% 29.90 in 10.0 mi WNW 4.6 mph - N/A   Clear
9:57 PM 55.9 °F 51.1 °F 84% 29.93 in 10.0 mi WNW 3.5 mph - N/A   Clear
10:57 PM 54.0 °F 50.0 °F 86% 29.95 in 10.0 mi WNW 6.9 mph - N/A   Clear
11:57 PM 53.1 °F 48.9 °F 86% 29.95 in 10.0 mi WNW 4.6 mph - N/A   Clear